RH
100 89 100 57 56 45 26 43 54 52 58 77 99 100 100 98 100 100 100 99 100 100 100 100 100 100 100 100 100 100 100 100 100 100 100 100 100 100 97 94 100 100 100 100
100 100 100 61 64 49 25 30 60 54 65 65 82 100 96 91 100 93 100 100 100 85 100 100 96 89 98 99 98 89 100 100 100 100 100 100 100 100 100 100 95 97 100 100
100 100 100 66 73 56 32 31 40 55 60 74 72 91 91 77 87 100 100 100 100 95 100 100 99 100 100 94 77 87 91 88 84 100 94 86 85 91 79 89 91 82 68 58
100 100 100 66 76 64 37 32 28 65 51 84 78 76 76 74 84 67 100 100 100 100 100 96 97 68 99 74 82 90 100 100 74 56 55 54 71 99 99 100 100 98 91 95
100 100 100 63 77 68 44 33 29 48 66 72 95 98 98 99 85 87 76 100 100 100 100 100 100 100 100 98 94 93 100 100 100 90 72 68 100 100 100 100 100 99 83 68
100 100 100 91 79 72 50 34 35 32 63 64 58 81 74 82 86 92 78 99 97 100 100 100 99 93 96 71 99 100 95 98 99 95 94 100 97 95 88 83 73 58 54 65
89 100 100 99 80 77 58 41 37 35 32 61 70 63 68 85 95 100 90 74 100 94 77 70 78 85 93 95 94 95 93 78 59 80 80 68 67 60 55 55 62 73 81 85
100 100 100 100 83 82 67 54 42 40 38 34 44 74 77 65 66 64 72 84 68 100 100 100 100 100 100 96 78 83 74 70 70 57 50 51 53 68 68 83 82 82 84 89
98 100 100 100 92 90 71 65 54 42 41 46 36 34 55 70 79 98 73 63 74 72 59 60 68 75 69 66 73 72 66 63 60 60 64 72 75 69 71 79 84 83 83 85
100 100 98 100 100 91 72 66 73 56 44 47 46 39 35 63 60 63 66 68 79 85 76 72 72 74 70 69 68 72 76 78 73 75 78 88 88 83 86 84 78 88 84 83
100 96 99 100 100 90 84 71 64 62 55 56 58 46 38 36 51 79 66 54 62 66 69 71 69 68 79 86 80 85 82 83 85 84 90 86 85 71 63 68 70 60 68 81
100 86 69 100 100 100 98 79 59 57 63 55 69 52 47 43 33 38 43 72 61 58 59 65 76 73 65 59 58 59 57 59 65 77 73 58 55 49 43 40 39 37 52 83
98 84 99 100 100 100 84 97 81 57 52 58 65 59 43 51 41 36 37 45 56 68 69 61 54 57 67 59 25 30 40 43 40 44 51 48 38 36 33 34 35 36 47 61
86 74 85 100 100 100 98 96 98 74 59 64 48 57 44 58 48 40 37 45 81 89 71 54 55 56 58 49 41 41 43 46 49 46 41 36 32 35 53 45 42 58 68 89
82 74 87 100 100 90 99 96 99 79 79 75 64 56 48 61 52 46 43 41 61 84 80 78 76 72 65 60 48 47 51 50 47 42 47 58 54 51 42 51 61 72 87 99
79 78 98 100 100 100 100 100 91 86 97 68 68 60 55 63 58 51 40 47 45 61 100 100 98 100 100 88 46 52 60 63 71 54 46 54 57 61 69 89 97 100 100 100
95 87 100 100 100 100 95 100 98 95 93 87 79 65 59 62 58 54 47 42 44 49 56 91 82 89 94 62 43 50 59 69 72 74 77 70 74 88 99 100 100 100 99 93
100 100 100 100 100 88 100 100 100 97 100 99 81 74 59 58 55 57 52 56 51 53 55 57 74 98 91 75 58 56 68 76 74 72 78 88 91 94 98 99 99 100 100 100
100 96 91 100 100 100 100 100 100 100 100 96 77 80 74 61 61 68 71 62 63 60 54 58 62 58 84 95 95 94 92 88 85 80 75 74 78 87 96 100 100 100 100 100
100 100 98 100 100 100 100 100 100 100 100 92 87 89 93 73 72 79 96 82 78 68 67 68 71 66 66 72 82 93 94 95 94 90 90 90 90 97 94 92 94 95 93 94
100 100 100 100 100 100 100 100 100 100 100 92 97 96 98 81 89 84 84 73 74 77 76 87 90 88 77 77 82 99 100 100 100 97 93 94 96 93 88 89 92 96 97 98
100 100 100 100 100 100 100 100 100 100 100 100 100 92 84 77 89 88 82 80 89 90 91 97 100 100 99 94 70 93 93 96 94 92 87 88 89 89 90 90 88 89 98 97
100 100 100 100 100 100 100 100 100 100 100 100 91 80 74 83 96 89 78 83 94 94 89 89 100 100 93 92 89 93 87 82 75 70 70 81 92 88 86 88 97 100 100 97
99 100 100 100 100 100 100 100 100 100 100 100 99 84 78 99 100 100 90 87 90 88 91 89 98 100 96 75 74 85 85 79 82 92 98 100 89 80 82 87 82 84 90 88
100 100 100 100 100 100 100 100 100 100 100 98 88 85 94 100 100 95 94 95 86 86 92 85 81 76 78 84 100 100 97 91 98 100 94 88 90 95 89 89 77 86 89 82
83 100 100 100 100 100 100 99 100 98 93 83 77 70 81 86 90 91 98 88 80 64 67 73 70 95 100 100 100 87 96 99 100 100 100 99 93 86 87 82 63 60 66 73
Wind_Speed
35 37 34 39 41 44 46 34 27 17 8 5 9 8 10 8 13 18 22 20 17 20 18 19 21 27 36 37 45 45 49 46 43 43 54 50 46 51 59 64 63 60 61 60
33 33 34 37 39 40 41 41 25 14 10 5 11 7 8 12 15 16 16 20 23 24 24 20 28 25 32 32 34 35 43 43 40 40 36 37 38 38 40 43 49 52 51 55
32 32 33 37 37 37 37 38 29 21 9 8 8 12 12 6 14 18 25 24 21 17 25 30 29 29 33 27 28 29 29 32 35 33 36 36 38 42 41 42 44 46 47 49
31 32 33 35 35 34 34 33 33 19 9 5 7 3 8 5 11 19 30 30 31 26 25 23 35 35 33 35 35 33 35 34 37 39 37 40 39 38 40 44 47 50 52 53
30 31 32 34 34 32 31 32 28 17 16 2 5 7 7 7 9 17 26 33 33 34 35 33 36 35 41 39 33 32 32 31 33 35 36 37 43 44 46 47 50 54 57 60
30 32 30 32 33 30 27 28 28 24 14 17 10 9 9 12 14 16 18 35 38 34 33 36 33 36 39 39 35 37 41 43 42 45 45 45 48 50 53 52 56 58 59 58
30 32 32 33 32 28 26 25 23 25 24 14 16 14 15 16 17 18 22 25 32 37 39 37 39 41 41 40 40 41 44 45 48 48 48 51 54 57 56 53 53 52 53 55
35 33 33 33 33 27 26 23 24 22 21 18 16 17 17 19 20 23 25 27 31 39 39 37 38 39 42 42 45 48 48 47 51 50 54 53 49 46 45 50 51 53 55 58
37 35 33 34 33 27 27 23 23 21 22 25 22 16 18 22 22 22 24 28 33 35 38 44 45 45 45 44 45 46 46 46 47 46 44 44 45 46 48 52 54 57 58 57
37 36 34 33 32 29 27 26 23 22 23 25 22 25 16 25 28 28 27 28 29 29 31 36 40 42 42 42 42 42 41 43 42 45 43 45 49 50 52 54 55 55 54 55
41 40 35 34 36 31 29 27 23 24 25 26 28 29 27 16 21 34 34 31 29 33 35 33 33 33 36 38 40 41 42 43 44 45 47 49 51 53 52 52 52 55 55 57
44 42 37 37 37 31 30 30 27 23 25 26 27 32 31 30 23 24 32 38 36 35 33 35 36 39 40 41 43 44 45 47 47 47 49 49 48 50 51 52 53 54 56 61
48 39 38 38 36 36 35 30 29 27 25 28 27 30 34 31 33 30 26 32 35 39 39 39 39 41 42 43 42 41 43 44 44 43 47 48 52 53 54 55 56 57 59 61
50 44 41 39 43 39 36 35 32 30 29 29 32 30 32 27 34 32 30 24 28 34 38 41 43 44 42 43 39 36 38 41 43 45 47 50 52 53 53 57 58 57 58 60
52 47 43 43 44 43 40 37 34 33 32 33 35 34 34 27 34 33 30 28 27 32 33 34 36 39 41 42 39 40 40 41 44 45 45 45 47 50 51 53 54 56 56 59
56 49 46 48 48 46 42 41 39 36 37 37 37 38 36 28 34 33 33 32 31 33 34 37 38 38 42 43 40 42 42 43 45 45 47 46 50 52 53 54 57 59 61 65
60 53 51 49 52 48 44 44 41 40 40 39 39 41 39 32 36 36 34 35 35 32 35 43 42 41 40 42 43 45 45 44 43 45 46 49 49 50 53 56 59 63 66 69
64 57 58 55 54 48 44 47 44 44 42 42 43 42 40 37 38 40 38 36 40 40 36 37 44 46 46 46 47 48 48 47 47 48 49 50 52 54 57 60 62 66 70 73
70 67 63 57 53 51 49 48 49 46 46 47 44 42 40 41 42 41 41 40 41 40 40 40 41 44 51 51 52 52 52 53 53 53 54 55 56 57 60 64 66 69 72 75
74 70 64 58 53 51 51 53 54 51 42 54 44 40 41 43 43 41 42 43 44 44 43 44 43 44 46 49 54 56 58 58 59 60 61 62 63 65 67 69 71 73 76 79
73 69 63 58 53 52 53 53 58 52 51 52 47 42 43 46 45 45 45 47 46 46 48 50 51 52 50 49 50 51 51 54 56 59 62 64 66 69 72 74 76 78 81 83
73 70 65 61 56 56 56 57 56 54 53 50 49 50 51 50 49 46 49 50 49 48 51 54 54 54 58 56 54 52 57 59 63 65 68 70 72 74 76 79 81 82 82 84
75 70 69 65 59 59 60 60 58 58 57 56 55 55 53 52 52 52 54 54 54 53 54 56 58 62 62 60 53 54 57 61 64 64 64 59 57 61 67 71 75 80 85 89
69 70 67 64 58 59 60 60 60 60 58 58 55 58 53 52 53 56 58 58 58 59 58 60 62 66 64 59 56 58 63 63 58 52 50 54 57 62 68 76 81 81 84 90
69 69 64 62 62 63 61 63 62 60 60 59 59 59 54 55 58 60 62 63 63 60 61 62 64 64 62 60 64 69 72 66 61 60 62 63 67 73 77 82 86 81 84 87
70 68 67 63 66 64 64 66 62 62 62 58 58 59 59 61 63 65 63 65 64 63 64 66 68 64 70 70 74 72 70 70 69 66 69 72 77 82 84 88 91 85 81 83
Wind_Direction
293 303 310 321 333 342 352 350 345 353 334 176 140 144 175 181 158 178 177 174 157 173 180 192 205 211 208 206 216 223 226 228 228 233 235 243 252 254 252 256 262 263 266 268
289 298 309 318 330 340 349 358 345 360 9 234 178 191 236 194 187 168 172 174 179 187 173 199 203 210 211 219 219 222 226 231 237 240 245 249 251 254 256 254 258 261 263 265
285 294 304 314 328 335 347 0 351 333 26 16 227 208 235 251 194 183 175 164 194 205 207 196 201 199 215 229 230 232 240 244 243 247 247 252 257 256 255 257 260 264 271 274
278 288 297 308 322 330 341 356 356 335 324 28 33 331 295 251 235 211 185 193 187 191 199 216 217 218 223 229 234 236 233 242 252 258 257 258 261 264 264 264 266 271 274 274
271 282 292 303 315 325 337 349 1 341 311 267 239 251 249 246 222 220 213 205 204 208 215 210 220 223 229 236 247 247 248 251 257 257 260 260 258 257 258 259 263 267 270 273
263 275 284 296 307 320 334 351 5 3 320 294 273 248 245 241 244 236 220 213 208 215 217 227 231 235 239 241 246 247 245 248 249 253 256 255 255 262 266 269 271 274 277 277
257 267 277 287 298 312 326 339 353 2 3 311 291 267 257 237 233 241 243 219 222 229 237 240 240 245 241 247 254 255 257 258 259 261 263 267 268 268 270 271 272 273 275 277
250 259 270 280 290 301 313 322 333 352 350 360 304 273 263 267 258 250 238 237 231 230 233 237 241 244 251 255 257 260 263 265 263 262 269 269 267 266 269 272 273 274 276 275
249 255 264 275 283 291 303 314 322 337 344 351 356 330 266 245 253 258 260 251 243 243 242 244 247 251 256 257 260 264 265 264 266 268 267 268 269 268 270 273 274 275 278 278
246 250 257 269 273 282 292 304 309 321 337 347 345 1 341 277 265 257 253 257 255 254 252 252 253 255 257 259 262 264 265 266 265 268 269 271 272 272 272 273 274 273 274 274
239 245 253 261 266 277 281 294 299 312 323 333 335 356 356 350 294 273 266 259 256 256 252 255 259 259 258 258 260 260 261 262 264 267 271 273 274 274 273 272 273 272 271 271
237 241 247 253 263 272 272 285 293 303 314 324 325 335 342 345 334 312 276 262 264 262 260 256 258 264 267 267 263 262 261 263 266 270 273 273 272 272 273 273 272 271 269 267
240 241 243 251 256 264 269 278 285 296 306 312 319 328 343 333 334 331 305 274 269 270 269 265 263 266 271 279 270 266 267 270 272 273 273 273 274 275 274 273 273 273 271 270
239 237 239 248 255 262 265 273 278 287 297 306 313 323 334 323 326 330 328 291 271 275 276 275 274 273 277 278 276 277 278 280 281 282 281 278 276 274 271 274 276 276 275 271
237 235 235 244 250 258 262 269 271 281 291 301 308 317 328 318 319 319 330 317 287 280 285 286 285 285 284 282 281 283 286 286 284 284 286 283 280 281 285 284 283 278 276 276
236 234 234 241 248 254 258 267 270 277 286 295 304 308 318 314 313 318 321 325 313 287 277 280 284 283 282 282 284 287 289 287 288 292 290 285 283 283 285 283 281 280 279 279
236 234 235 242 248 254 260 262 270 275 281 294 297 303 312 311 308 316 315 317 326 314 290 278 275 275 274 276 278 280 284 284 284 287 287 288 287 285 283 282 281 281 282 283
233 233 237 241 248 254 257 257 264 269 280 288 292 299 308 306 309 310 313 316 322 322 318 310 283 279 278 275 275 277 280 282 283 283 285 287 288 289 289 288 288 288 288 288
229 232 235 238 247 250 257 262 262 267 278 284 288 298 298 303 306 306 307 313 313 317 313 314 310 294 281 280 279 280 281 281 282 283 284 284 284 285 285 286 286 287 287 289
228 232 236 238 245 250 253 256 264 270 278 276 287 291 290 299 300 301 300 307 310 309 305 309 306 307 298 291 287 286 286 285 285 284 284 284 285 287 287 287 287 288 288 289
227 231 235 238 242 244 250 257 264 271 265 280 286 287 285 293 292 295 298 302 308 307 303 301 301 304 305 300 293 290 287 284 283 283 284 285 285 286 286 287 287 289 290 291
226 229 232 236 240 242 249 255 263 266 276 277 279 285 290 292 289 293 297 299 303 302 300 301 301 300 301 302 300 289 288 286 285 286 285 286 288 289 290 291 291 291 291 290
226 229 232 236 239 244 250 255 261 269 275 275 283 289 291 288 290 292 296 300 299 300 300 300 299 300 299 299 295 288 290 291 289 290 291 291 290 292 293 292 292 292 291 291
226 229 233 238 242 245 249 255 261 265 269 278 281 286 289 285 287 288 293 296 297 299 298 299 298 299 302 301 298 300 301 307 296 288 284 286 290 295 300 304 300 296 294 293
226 230 232 237 243 246 251 256 259 263 269 273 281 284 284 281 283 287 291 293 296 297 299 299 299 299 303 304 304 300 299 302 304 290 289 287 291 294 296 301 301 295 293 295
229 230 233 236 241 248 251 256 259 264 268 275 279 282 279 283 287 291 290 292 295 298 299 299 301 304 303 302 301 301 304 303 302 298 292 290 294 296 295 298 297 300 297 296